Weather History for El Centro, CA

Change the Weather History Date:

Sunday, April 13, 2014

  Actual Average Record
Temperature  
Mean Temperature 75 °F -  
Max Temperature 90 °F 80 °F 96 °F (2013)
Min Temperature 60 °F 56 °F 51 °F (1998)
Cooling Degree Days 10    
Growing Degree Days 25 (Base 50)    
Moisture  
Dew Point 40 °F    
Average Humidity 30    
Maximum Humidity 44    
Minimum Humidity 17    
Precipitation  
Precipitation 0.00 in - - ()
Sea Level Pressure  
Sea Level Pressure 29.82 in    
Wind  
Wind Speed 12 mph (WSW)    
Max Wind Speed 21 mph    
Max Gust Speed -    
Visibility 10 miles    
Events      
Averages and records for this station are not official NWS values.
T = Trace of Precipitation, MM = Missing Value Source: NWS Daily Summary

Daily Weather History Graph

Daily Weather History Graph

Search for Another Location

Airport:

Trip Planner

Search our weather history database for the weather conditions in past years. The results will help you decide how hot, cold, wet, or windy it might be!

Date:

Astronomy

Apr. 13, 2014 Rise Set
Actual Time 6:15 AM PDT 7:11 PM PDT
Civil Twilight 5:50 AM PDT 7:36 PM PDT
Nautical Twilight 5:20 AM PDT 8:06 PM PDT
Astronomical Twilight 4:49 AM PDT 8:37 PM PDT
Moon 5:57 PM PDT (4/13) 5:11 AM PDT (4/13)
Length of Visible Light 13h 46m
Length of Day
12h 56m
Waxing Gibbous, 97% of the Moon is Illuminated
Apr 13
Waxing Gibbous
Apr 15
Full
Apr 22
Last Quarter
Apr 28
New
May 6
First Quarter

Hourly Weather History & Observations

Time (PDT) Temp. Dew Point Humidity Pressure Visibility Wind Dir Wind Speed Gust Speed Precip Events Conditions
12:56 AM 66.0 °F 37.9 °F 36% 29.79 in 10.0 mi West 20.7 mph - N/A   Clear
1:56 AM 66.0 °F 37.9 °F 36% 29.78 in 10.0 mi West 18.4 mph - N/A   Unknown
2:56 AM 64.0 °F 37.9 °F 38% 29.79 in 10.0 mi West 15.0 mph - N/A   Clear
3:56 AM 64.0 °F 37.9 °F 38% 29.78 in 10.0 mi West 16.1 mph - N/A   Clear
4:56 AM 62.1 °F 39.0 °F 43% 29.78 in 10.0 mi SW 9.2 mph - N/A   Clear
5:56 AM 60.1 °F 37.9 °F 44% 29.79 in 10.0 mi West 6.9 mph - N/A   Clear
6:56 AM 61.0 °F 37.9 °F 42% 29.83 in 10.0 mi West 3.5 mph - N/A   Clear
7:56 AM 66.9 °F 39.9 °F 37% 29.85 in 10.0 mi WSW 5.8 mph - N/A   Clear
8:56 AM 72.0 °F 39.9 °F 31% 29.86 in 10.0 mi West 13.8 mph - N/A   Clear
9:56 AM 75.0 °F 35.1 °F 23% 29.87 in 10.0 mi West 5.8 mph - N/A   Clear
10:56 AM 77.0 °F 36.0 °F 23% 29.88 in 10.0 mi East 4.6 mph - N/A   Clear
11:56 AM 81.0 °F 37.0 °F 21% 29.87 in 10.0 mi Calm Calm - N/A   Clear
12:56 PM 84.0 °F 39.9 °F 21% 29.86 in 10.0 mi Variable 4.6 mph - N/A   Clear
1:56 PM 84.9 °F 39.9 °F 20% 29.84 in 10.0 mi East 8.1 mph - N/A   Clear
2:56 PM 86.0 °F 39.9 °F 20% 29.81 in 10.0 mi Variable 5.8 mph - N/A   Clear
3:56 PM 88.0 °F 39.9 °F 18% 29.79 in 10.0 mi WSW 10.4 mph - N/A   Clear
4:56 PM 90.0 °F 39.0 °F 17% 29.77 in 10.0 mi SW 12.7 mph - N/A   Clear
5:56 PM 88.0 °F 42.1 °F 20% 29.77 in 10.0 mi WSW 16.1 mph - N/A   Clear
6:56 PM 82.0 °F 43.0 °F 25% 29.78 in 10.0 mi WSW 16.1 mph - N/A   Clear
7:56 PM 77.0 °F 44.1 °F 31% 29.80 in 10.0 mi WSW 15.0 mph - N/A   Clear
8:18 PM 75.9 °F 44.1 °F 32% 29.77 in 8.0 mi West 15.0 mph - N/A   Partly Cloudy
8:56 PM 73.9 °F 44.1 °F 34% 29.83 in 10.0 mi WSW 12.7 mph - N/A   Clear
9:56 PM 73.0 °F 43.0 °F 34% 29.85 in 10.0 mi West 12.7 mph - N/A   Clear
10:56 PM 71.1 °F 43.0 °F 36% 29.87 in 10.0 mi West 11.5 mph - N/A   Clear
11:56 PM 66.9 °F 43.0 °F 42% 29.90 in 10.0 mi Calm Calm - N/A   Clear